Home   Weather   Little Rock   Past weeks

Flag for USA Past Weather in Little Rock, Arkansas, USA — Yesterday and Last 2 Weeks

Now
83 °F

Clear.


Feels Like: 93 °F
Forecast: 77 / 97 °F
Wind: 8 mph from South

Location: Adams Field

Current Time: Jul 22, 2017 at 12:00:57 am

Latest Report: Jul 21, 2017 at 10:53 pm


Visibility: 9 mi

Pressure: 29.95 "Hg

Humidity: 85%

Dew Point: 78 °F

Location of Little RockLocation

Past Weather in Little Rock — Graph

°F

Little Rock Temperature Yesterday

Maximum temperature yesterday: 96 °F (at 2:53 pm)
Minimum temperature yesterday: 77 °F (at 5:53 am)
Average temperature yesterday: 87 °F

High & Low Weather Summary for the Past Weeks

 TemperatureHumidityPressure
High96 °F (Jul 21, 2:53 pm)100% (Jul 6, 10:28 pm)30.15 "Hg (Jul 6, 10:28 pm)
Low69 °F (Jul 8, 7:10 am)47% (Jul 17, 3:53 pm)29.92 "Hg (Jul 16, 5:53 pm)
Average82 °F78%30.04 "Hg
* Reported Jul 6 9:41 pm — Jul 21 9:53 pm, Little Rock. Weather by CustomWeather, © 2017

Note: Actual official high and low records may vary slightly from our data, if they occured in-between our weather recording intervals... More about our weather records

Advertising

Little Rock Weather History for the Previous 24 Hours

Scroll right to see more
 ConditionsComfort  
Time TempWeatherWind HumidityBarometerVisibility
9:53 pm
Fri, Jul 21
84 °FClear.9 mph83%29.96 "Hg10 mi
8:53 pm85 °FPassing clouds.7 mph80%29.94 "Hg10 mi
7:53 pm89 °FPassing clouds.5 mph68%29.94 "Hg10 mi
6:53 pm92 °FPassing clouds.9 mph60%29.93 "Hg10 mi
5:53 pm94 °FPassing clouds.8 mph52%29.93 "Hg10 mi
4:53 pm95 °FPassing clouds.8 mph49%29.94 "Hg10 mi
3:53 pm95 °FScattered clouds.8 mph52%29.96 "Hg10 mi
2:53 pm96 °FBroken clouds.8 mph49%29.98 "Hg10 mi
1:53 pm94 °FScattered clouds.5 mph54%29.99 "Hg10 mi
12:53 pm94 °FBroken clouds.9 mph56%30.01 "Hg10 mi
11:53 am93 °FBroken clouds.9 mph60%30.01 "Hg10 mi
10:53 am92 °FPassing clouds.5 mph64%30.03 "Hg10 mi
9:53 am89 °FSunny.7 mph70%30.03 "Hg10 mi
8:53 am86 °FSunny.3 mph80%30.04 "Hg9 mi
7:53 am82 °FSunny.No wind88%30.04 "Hg7 mi
6:53 am78 °FFog.No wind100%30.03 "Hg6 mi
5:53 am77 °FPassing clouds.5 mph100%30.01 "Hg7 mi
4:53 am78 °FClear.3 mph96%30.00 "Hg10 mi
3:53 am79 °FClear.5 mph97%30.00 "Hg10 mi
2:53 am80 °FClear.7 mph94%30.00 "Hg10 mi
1:53 am81 °FClear.5 mph88%30.00 "Hg10 mi
12:53 am82 °FClear.6 mph82%30.01 "Hg10 mi
Weather by CustomWeather, © 2017

See weather overviewHow to use our weather pages